星链-5780 (STARLINK-5780 )

导读 | 星芒AI

STARLINK-5780 是 SpaceX 星链计划中的一颗低轨通信卫星,属于第57批发射的星链卫星群。该卫星运行在约550公里高度的近地轨道,旨在为全球用户提供高速互联网服务。它采用先进的推进系统和激光通信技术,具备自动避障功能,以确保运行安全。作为星链网络的重要组成部分,STARLINK-5780 有助于提升网络覆盖和连接稳定性,特别是在偏远和网络基础设施薄弱的地区。

基本信息
目录编号:
57150
目录名称:
STARLINK-5780
国际标识:
2023-090BB
轨道中心:
EARTH
卫星名称:
星链-5780
卫星全名:
星链-5780 (STARLINK-5780 )
卫星状态:
在轨 (已飞行912 天)
发射日期:
2023-06-23 UTC
国别 :
美国 (US)
星等 :
--
轨道信息
数据来源 国际轨道数据
星历时间: 2025-12-20T13:57:06+0800
1天前
查看轨道信息
半长轴: 6937.235km
偏心率: 0.0001373
轨道倾角: 43.008°
近地点辐角 270.006°
升交点赤经 333.260°
平近点角 90.062°
近地点: 558.145km
远地点: 560.051km
周期: 95.838分钟
每日圈数: 15.025301
详细信息
固有亮度:
5
最大亮度:
2.4
卫星平台:
Starlink v1.5
覆盖范围:
全球
运营商:
太空探索技术公司
运营商所在国:
美国
制造商(研发单位):
太空探索技术公司
制造商所在国:
美国
使用方式:
暂无
卫星简介
星链(Starlink)计划是由太空探索技术公司(SpaceX)提出的一个巨型低轨卫星互联网星座项目,计划在2019年至2024年间在太空搭建由约1.2万颗卫星组成的“星链”网络,其中1584颗将部署在地球上空550千米处的近地轨道,并从2020年开始工作。该卫星仍在工作。
2D轨道图
3D轨道图
轨道高度分析图
轨道倾角分析图
轨道综合分析图
查看轨道综合分析图